Погода в Котельниках

Россия / Московская область     55°39′35″N   37°51′47″E
темп.,
°C
ветер,
м/с
пор.,
м/с
влажн.,
%
обл.,
%
осадки,
мм/ч
давл.,
гПа
погр.,
м
18 мая, ср
ср1800:00+7с41092100 0.3 1007450
03:00+7с41090100 0.3 1008524
06:00+7ссз4108894 0.0 1010384
09:00+11с69585 0.0 10121074
12:00+14с674117 0.0 10122007
15:00+14ссз7744100 0.0 10132024
18:00+11ссз6859100 0.1 10141282
21:00+9ссз496029 0.1 10161029
19 мая, чт
чт1900:00+7зсз3767100 0.0 1016333
03:00+8з5116778 0.0 1014595
06:00+7зсз4117175 0.0 1014511
09:00+9сз6868100 0.1 10141024
12:00+11сз696087 0.3 10141565
15:00+14сз7103496 0.6 10132835
18:00+13ссз583581 0.0 10142409
21:00+8ссв265622 0.0 1015388
20 мая, пт
пт2000:00+6ссв376871 0.0 1017276
03:00+4ссв376954 0.0 1018352
06:00+4с48660 0.0 1020469
09:00+7с45450 0.0 10211112
12:00+11с33325 0.0 10201867
15:00+12ссз232957 0.0 10182214
18:00+12ссз3331100 0.0 10162190
21:00+9св2446100 0.0 1016163
21 мая, сб
сб2100:00+6всв3761100 0.0 1015218
03:00+4всв256519 0.0 1015161
06:00+4св35585 0.0 1014205
09:00+9св34465 0.0 10141262
12:00+12ссв34326 0.0 10122123
15:00+13с452994 0.0 10112493
18:00+12ссв443368 0.0 10112104
21:00+8ссв37507 0.0 1012307
22 мая, вс
вс2200:00+5ссв36545 0.0 1012200
03:00+4ссв24620 0.0 1012123
06:00+4ссв24594 0.0 1012200
09:00+9ссв34390 0.0 10111551
12:00+12ссв34315 0.0 10102032
15:00+13с44297 0.0 10092315
18:00+13с453355 0.0 10092151
21:00+8ссв37504 0.0 1011351